{"data":{"norad_id":66559,"epoch":"2026-09-20T21:36:00.028512Z","epoch_age_seconds":55067,"freshness":"FRESH","line1":"1 66559U 25268C   26263.90000033  .00010391  00000+0  38659-3 0  9995","line2":"2 66559  43.0034 324.7079 0001620 277.7371  82.3297 15.27581550 47812","mean_motion":15.2758155,"eccentricity":0.000162,"inclination_deg":43.0034,"raan_deg":324.7079,"arg_perigee_deg":277.7371,"mean_anomaly_deg":82.3297,"bstar":0.00038659,"rev_number":4781,"period_min":94.266653063465,"perigee_km":481.93294339029,"apogee_km":484.15596618164,"semimajor_km":6861.181454786,"source":"CELESTRAK","updated_at":"2026-09-21T09:00:35.969803Z"}}